Location: Brede
(50.9167°N, 0.6000°E)
Time: 08:45:53
(UTC+00:00)

Altair - Pass Details

Date: 02 August 2021
Orbit: 1501 x 1682 km, 47.2° (Epoch: 18 September)

Event Time Altitude Azimuth Distance (km) Brightness Sun altitude
Exits shadow 01:36:13 26° 206° (SSW) 2,688 8.1 -18.4°
Maximum altitude 01:41:14 46° 150° (SSE) 1,955 7.8 -18.1°
Drops below altitude 10° 01:49:50 10° 81° (E) 3,662 9.9 -17.5°
Sets 01:52:58 0° 76° (ENE) 4,640 10.7 -17.3°
